RH
22 24 26 27 29 33 36 36 38 38 38 40 42 42 38 37 34 32 34 32 28 27 25 24 23 20 24 26 25 27 29 31 32 33 34 31 30 31 32 35 39 42 46 48 48 51 55 57 58 58 59 60 64 69 73 80 84 85 88 88 91 96 98 98 96 94 91 91 93 93 92 93 92 90 89 90 91 89 86 83 83 84 85 84 83 81 80 79 78 77 76 74 72 69 63 57 54
22 24 26 28 30 34 35 36 40 38 32 32 34 35 34 33 32 30 33 32 27 27 26 23 23 22 23 23 23 28 30 30 29 29 28 26 28 29 29 31 34 38 43 48 51 52 54 56 57 59 60 62 64 69 72 75 79 82 85 83 85 92 98 98 96 95 94 94 96 95 95 94 95 93 91 91 92 91 88 85 82 82 84 86 85 83 82 80 78 77 76 76 74 72 68 63 59
22 24 27 30 31 32 33 36 42 39 30 28 27 29 31 29 29 31 33 31 27 25 24 21 20 22 24 24 26 29 28 25 25 25 23 24 25 24 25 26 29 34 38 44 51 54 54 55 55 57 61 66 67 69 70 70 74 79 83 84 84 89 97 99 96 98 98 97 98 99 98 97 96 94 92 91 92 91 89 87 84 82 83 84 84 84 82 79 78 77 76 75 74 72 71 68 64
22 25 28 30 31 30 35 39 40 39 32 30 26 25 28 27 26 30 30 26 26 25 23 20 17 20 22 24 26 26 26 24 22 22 21 21 20 20 21 23 25 29 32 38 44 49 51 52 52 53 55 63 68 70 69 69 72 74 77 81 83 87 95 99 98 99 98 97 99 100 99 98 97 95 94 92 92 90 89 89 86 82 82 82 80 80 81 79 79 78 77 75 73 72 72 71 68
23 25 27 28 29 29 34 35 31 31 28 29 27 23 25 25 24 28 27 23 24 23 21 20 19 19 19 21 23 22 24 23 20 19 19 18 18 19 20 21 23 26 29 34 38 43 46 48 49 50 49 53 62 69 69 68 71 73 73 75 80 86 92 95 95 96 96 96 97 97 97 97 97 96 95 93 92 91 90 90 89 85 83 81 79 81 82 81 79 78 76 74 73 72 73 72 70
24 26 25 25 25 25 28 27 24 24 22 25 25 22 23 23 23 24 23 22 22 21 19 18 19 18 17 18 18 19 21 20 18 18 18 18 18 19 20 21 23 25 28 30 34 38 41 44 45 47 47 47 52 61 68 68 70 74 78 80 82 88 94 94 95 96 96 97 97 95 95 95 95 96 95 92 92 92 91 91 91 89 86 82 82 85 85 84 81 78 75 73 72 73 74 74 73
24 24 23 23 23 22 23 24 23 23 21 21 22 22 23 22 22 22 22 20 19 18 18 17 17 17 18 18 16 17 18 17 17 17 17 17 18 19 21 22 23 24 26 29 32 35 38 41 43 44 46 47 46 52 61 67 70 72 80 86 86 89 93 94 94 97 99 99 100 98 96 94 93 94 95 95 92 92 93 94 95 93 91 87 85 87 88 87 84 81 78 75 73 74 73 76 80
21 22 20 23 25 23 22 22 22 22 21 19 20 22 21 20 19 20 20 18 17 16 18 17 15 17 18 17 16 16 16 17 17 17 16 17 18 19 20 22 24 25 26 28 30 33 36 38 42 44 45 47 47 48 52 62 70 71 75 81 86 88 90 91 90 93 98 99 100 100 98 97 95 95 95 94 93 93 95 95 96 95 93 92 90 91 92 89 85 82 81 78 75 74 74 78 85
18 19 20 23 24 23 22 21 21 20 19 19 19 19 18 18 16 16 17 16 16 16 17 17 17 18 18 16 16 16 17 17 17 17 17 17 18 19 21 23 25 27 28 30 30 32 33 35 38 41 45 47 49 49 48 53 65 71 73 79 86 88 86 88 89 89 92 95 98 99 99 99 98 96 93 92 93 95 97 96 95 94 94 94 93 93 92 90 87 85 83 82 78 77 78 79 82
16 17 18 22 22 20 20 20 20 18 17 17 17 16 15 15 15 15 16 15 15 15 16 16 16 17 16 16 16 17 17 17 16 16 17 18 20 21 23 24 25 27 27 27 28 29 30 32 34 38 42 45 48 52 51 50 55 63 68 77 86 87 86 86 86 87 89 91 94 95 97 100 99 97 94 94 95 96 98 99 98 96 96 95 94 93 91 89 89 89 88 86 83 81 83 82 83
15 14 15 21 22 20 20 20 19 17 14 14 15 14 13 13 13 15 15 15 14 14 15 15 16 15 14 15 15 15 15 14 14 15 17 18 19 20 21 21 22 22 22 22 22 23 25 29 31 34 37 41 45 50 55 55 54 57 60 67 76 84 89 89 88 88 88 89 92 92 95 98 99 98 96 96 97 97 98 99 99 99 98 97 95 94 92 91 92 91 93 92 88 85 85 86 86
13 16 19 20 21 20 21 22 19 17 14 13 13 13 13 12 14 15 14 15 14 14 14 15 15 14 15 15 14 14 14 14 14 15 16 16 16 16 16 17 17 17 18 18 19 20 22 26 30 32 34 37 41 46 54 58 59 59 58 60 65 73 83 89 91 91 89 90 90 90 91 94 96 97 97 96 96 96 97 98 99 99 99 99 97 95 94 94 94 92 93 94 93 89 86 86 86
11 17 22 18 20 22 21 21 19 18 14 12 13 13 13 13 14 14 14 15 14 15 14 14 15 14 15 14 13 13 14 13 13 13 13 13 12 12 12 12 13 13 14 15 17 20 22 27 31 33 34 35 37 41 47 54 59 61 61 61 61 64 73 82 86 88 89 89 90 89 89 91 93 94 95 95 94 94 95 96 98 99 99 100 98 97 97 97 96 94 92 92 92 91 88 85 85
11 14 19 18 22 24 22 20 17 16 13 11 14 14 14 14 14 13 13 15 14 14 14 14 15 14 14 14 13 14 13 12 12 12 12 12 11 11 11 11 11 11 11 12 15 18 23 27 31 35 36 36 38 40 44 49 55 60 62 63 63 63 68 77 82 83 85 87 88 88 88 89 91 93 93 93 93 93 93 93 95 97 98 99 99 98 98 99 99 98 94 90 89 89 88 85 85
10 10 19 24 24 22 20 18 15 15 13 12 15 14 14 14 14 13 13 14 14 14 14 15 14 13 13 14 13 13 12 12 12 13 13 14 14 14 13 13 13 13 12 11 14 19 24 27 30 33 35 36 38 41 44 48 54 59 62 63 64 63 64 72 79 81 81 83 85 86 87 87 88 89 91 92 92 93 92 92 92 93 95 96 98 98 98 98 99 99 98 95 93 91 89 87 86
9 10 20 24 19 17 15 15 16 15 12 13 14 14 14 14 13 13 14 13 14 14 14 14 13 12 13 13 13 13 13 13 13 14 15 16 16 16 16 16 16 16 14 12 15 23 27 29 30 32 34 37 38 41 45 48 53 59 63 64 64 63 62 63 70 77 79 80 81 84 85 85 86 86 87 88 89 91 92 92 91 91 91 92 94 97 98 97 97 98 99 98 98 95 93 91 87
8 11 17 17 14 14 13 13 15 14 11 13 15 14 14 15 13 13 13 12 14 15 14 13 12 12 12 12 13 13 14 14 14 15 16 17 17 17 17 17 17 15 13 12 18 25 28 30 30 32 34 37 39 42 45 48 52 57 62 65 66 65 63 61 61 66 73 75 76 78 80 82 84 85 84 84 84 86 89 92 93 92 90 89 91 93 96 97 97 97 97 98 99 98 96 94 91
10 17 16 12 13 12 11 13 13 13 12 13 15 14 15 15 14 13 14 13 14 14 13 13 12 12 12 13 14 14 15 15 15 16 16 16 16 17 17 17 15 12 12 15 21 24 26 29 30 31 33 35 38 41 43 47 49 52 57 62 65 66 65 64 61 61 65 70 73 74 75 77 80 83 84 83 82 81 83 85 89 92 92 90 89 90 92 95 95 96 96 96 98 99 98 97 96
12 19 16 13 15 11 9 11 11 12 12 13 14 14 14 15 14 14 15 14 14 13 13 13 12 12 13 14 15 15 15 16 16 16 15 16 16 16 16 14 12 11 13 17 21 22 23 25 27 29 31 33 36 39 41 43 47 48 50 53 58 62 64 65 65 64 63 65 69 72 73 73 74 76 79 82 83 82 81 81 82 86 88 89 89 88 88 90 92 94 96 96 95 98 100 100 99
10 15 15 13 13 10 10 11 10 11 12 13 14 13 14 14 14 14 15 15 14 14 13 13 13 14 15 15 16 16 16 17 16 15 15 15 15 15 13 11 11 12 15 18 20 21 22 22 24 26 28 30 33 35 38 40 42 45 47 48 50 54 58 62 64 65 65 64 64 67 69 70 71 71 72 75 79 81 81 80 79 80 82 85 87 88 86 86 88 90 94 96 95 96 98 100 100
9 13 15 11 10 11 11 11 11 11 11 12 13 13 14 14 14 14 14 16 16 14 13 13 15 15 16 16 17 17 17 17 16 16 16 15 16 14 12 12 13 14 16 19 20 20 20 20 21 22 24 26 29 31 33 36 38 40 43 46 48 50 52 56 59 61 63 63 63 64 65 66 67 68 69 69 71 75 78 79 78 78 78 79 82 86 87 86 84 84 87 91 93 95 95 97 99
9 11 12 10 10 11 11 11 12 12 12 13 13 14 14 14 14 14 15 17 16 14 14 15 15 16 17 17 17 18 17 17 17 16 16 16 15 13 12 13 13 14 17 18 18 18 18 17 17 18 20 22 25 27 30 32 34 36 39 42 46 50 52 53 55 57 58 59 61 62 63 62 63 64 65 67 67 68 71 75 76 76 76 76 76 79 82 84 82 79 79 82 86 92 95 95 96
11 10 10 10 10 11 12 12 12 12 13 14 14 14 14 14 14 14 14 16 15 14 15 16 16 17 17 18 18 18 18 17 18 18 17 16 14 12 12 13 14 15 15 16 16 17 17 16 16 16 18 19 21 24 27 30 33 34 37 39 43 48 52 54 56 57 57 56 56 57 60 61 61 61 62 64 66 66 66 68 70 72 73 73 74 74 75 77 80 79 77 75 76 83 93 95 95
11 11 9 10 10 11 12 12 13 13 14 14 14 14 14 15 15 15 15 14 15 15 16 16 17 18 18 18 19 19 19 18 18 18 19 16 12 12 13 13 14 14 14 15 16 17 16 15 15 15 17 18 20 22 24 26 30 32 34 36 38 43 48 53 55 57 59 58 56 56 57 59 59 60 60 61 64 65 65 64 64 65 67 68 69 71 72 72 74 77 78 76 72 73 83 92 93
11 11 10 10 10 11 12 12 14 15 16 15 15 16 16 16 16 15 15 15 16 16 17 17 17 18 18 19 19 19 19 19 19 19 19 16 12 12 12 13 14 14 15 15 16 16 15 14 14 14 16 18 19 20 20 20 23 26 29 31 33 36 40 45 50 55 58 60 59 58 58 59 59 60 61 61 62 64 65 63 62 62 63 63 62 63 66 69 69 70 73 76 76 71 75 85 88
10 10 10 10 11 12 13 14 15 15 16 16 16 18 17 15 16 16 16 16 17 17 17 18 18 19 19 20 20 20 20 20 20 20 20 17 14 13 13 14 14 14 15 15 15 14 15 16 16 18 19 20 21 21 21 20 20 20 21 23 25 28 32 36 41 48 54 59 61 61 61 60 60 61 62 62 63 63 63 63 62 61 61 60 60 58 57 60 63 63 64 67 73 73 74 82 84
10 11 11 11 12 13 14 14 15 16 16 16 17 18 17 16 17 18 16 16 18 19 19 19 20 20 20 20 21 20 21 21 21 21 21 18 16 15 15 16 16 16 15 14 14 13 15 18 18 21 24 23 23 25 25 24 24 23 21 20 19 19 21 26 31 37 46 52 58 61 63 62 62 62 62 63 64 64 64 63 62 60 58 58 58 57 54 53 54 56 57 57 62 67 71 78 84
11 11 11 12 12 13 14 15 15 16 17 16 16 18 17 17 19 19 17 18 19 20 21 20 20 21 21 21 21 22 22 22 22 22 21 20 18 18 19 19 18 16 14 14 14 13 16 18 18 21 24 24 24 26 26 26 27 27 26 24 21 18 17 17 19 24 33 41 48 55 61 63 63 63 64 64 65 65 66 65 64 61 57 56 55 55 54 52 51 51 52 51 52 57 62 69 79
12 13 15 16 16 15 14 15 15 16 18 17 16 19 21 21 20 18 17 19 20 20 21 21 21 21 22 22 22 23 23 23 23 23 22 20 19 21 23 22 20 17 14 13 12 13 16 17 17 19 22 24 24 24 26 27 27 27 27 26 26 25 23 19 16 15 20 27 35 44 52 58 60 62 64 64 65 65 66 66 67 66 62 58 55 54 54 53 50 49 50 50 49 50 53 58 66
12 15 19 20 21 18 14 14 15 15 17 17 17 20 23 24 20 18 19 19 20 21 21 22 22 22 23 23 24 24 25 24 24 24 23 21 21 23 25 25 22 18 13 11 12 14 16 17 18 20 23 24 24 24 25 26 26 26 26 27 27 28 28 27 24 19 17 18 22 30 39 48 54 58 61 63 65 65 65 65 66 68 67 64 60 56 55 54 51 48 47 48 49 48 48 51 54
17 18 22 24 20 18 16 15 16 16 17 17 17 20 22 24 21 18 19 20 20 22 22 23 22 23 24 24 25 25 25 25 24 25 24 22 23 25 27 26 22 16 12 11 12 14 16 18 19 21 23 24 24 25 25 25 26 26 27 28 29 30 30 31 30 28 25 21 17 20 26 35 44 51 56 59 62 65 66 66 65 65 66 67 66 63 59 57 54 51 48 46 47 48 47 47 48
24 20 23 27 21 19 19 16 17 17 17 17 18 22 24 24 23 20 20 21 21 22 23 23 24 24 25 25 26 27 27 26 26 26 24 24 25 27 28 25 20 15 13 12 13 15 17 19 20 22 23 24 25 26 26 27 28 28 29 30 31 33 34 34 35 34 33 30 22 18 18 23 32 40 48 53 57 61 64 66 67 66 65 65 66 66 65 62 58 55 52 49 46 47 47 47 47
29 21 21 25 21 21 21 17 18 18 18 19 19 22 24 24 23 21 21 21 22 23 24 24 25 26 26 27 27 28 28 28 27 27 26 27 28 28 27 23 19 16 14 13 14 16 18 20 21 23 24 25 25 26 27 28 29 30 30 31 32 34 36 38 39 39 39 35 28 23 20 18 22 29 37 45 51 54 59 63 66 67 67 66 64 65 66 65 63 60 57 54 50 48 48 47 47
27 24 24 24 21 20 21 20 19 19 20 21 21 23 24 25 25 22 21 22 23 24 25 25 26 27 27 28 29 29 29 29 29 28 28 29 28 28 26 22 18 15 14 14 16 18 20 21 22 23 24 25 25 25 26 28 29 31 31 31 32 33 37 39 41 43 44 39 32 29 27 22 19 21 26 35 43 48 53 58 62 65 67 68 67 67 67 66 65 63 61 59 55 52 51 50 48
22 24 25 25 23 21 21 21 21 22 23 22 23 24 25 27 27 23 22 23 24 25 25 26 27 28 29 29 30 31 31 31 31 31 30 30 29 28 25 21 17 14 14 15 17 20 21 22 23 24 24 24 24 25 25 27 29 31 31 31 31 32 35 38 41 45 47 43 36 32 33 30 25 22 20 24 32 40 46 51 55 59 63 66 67 68 69 70 69 66 64 61 58 55 53 52 50
22 24 25 24 24 22 22 22 21 22 24 24 25 25 25 26 27 25 24 24 25 26 26 27 28 29 30 31 32 33 33 33 33 33 32 30 28 26 23 19 16 15 14 16 19 22 23 23 23 23 24 24 23 23 24 26 28 30 31 30 30 31 34 38 42 46 48 47 42 37 38 38 34 28 23 21 24 30 38 44 49 53 58 62 64 66 67 69 72 72 69 65 61 58 54 53 51
23 25 25 24 24 23 21 22 23 22 25 29 28 26 26 26 28 27 25 26 26 27 27 28 30 31 32 33 34 34 34 34 35 35 33 30 28 26 22 19 16 15 15 18 22 24 25 24 24 23 24 23 22 22 22 24 26 28 30 31 30 32 35 38 42 47 49 48 46 43 43 43 40 35 30 25 22 23 28 35 42 47 52 56 59 61 63 65 69 72 74 72 68 63 58 54 52
26 25 23 24 26 24 21 23 25 23 25 30 28 27 27 26 28 29 27 28 28 28 28 29 31 32 33 34 35 36 36 36 37 36 34 31 29 26 22 19 16 15 16 20 24 25 26 25 25 25 25 23 22 22 22 23 25 27 30 33 33 33 35 39 43 48 49 47 47 46 46 46 44 39 35 31 27 24 24 27 34 40 46 51 54 56 58 61 64 68 72 74 73 70 65 60 57
28 26 24 26 27 26 26 26 26 25 25 29 29 28 28 27 29 30 29 29 28 29 29 30 33 34 35 36 36 37 37 38 38 38 36 33 30 27 23 20 17 16 18 22 26 27 27 27 27 27 25 23 22 22 22 23 25 28 31 34 34 34 36 40 44 48 49 47 46 45 44 46 45 41 38 35 33 31 29 28 30 35 40 45 50 52 54 56 59 63 67 71 72 71 69 67 64
27 26 26 27 27 26 27 26 27 27 27 29 30 28 28 28 29 30 30 29 29 30 30 32 34 35 36 37 37 38 39 40 40 40 38 34 31 28 24 19 17 17 20 24 28 29 28 28 28 26 23 21 21 21 22 23 25 28 31 33 34 34 34 38 43 48 50 49 48 47 45 45 45 43 42 39 37 35 34 33 32 34 38 42 46 49 52 53 54 57 61 65 67 69 70 71 70
27 28 26 25 26 26 26 27 28 29 30 30 28 28 28 29 30 30 31 31 31 32 33 34 36 36 37 38 38 40 41 42 42 41 39 36 33 30 24 19 18 18 21 27 30 30 29 29 28 25 23 21 21 22 22 24 25 27 29 31 32 33 33 35 40 46 50 50 50 50 49 47 45 45 45 44 42 40 37 35 34 34 35 39 42 45 48 51 52 52 54 57 60 65 70 73 74
28 29 28 26 27 28 28 29 29 29 31 30 29 32 33 31 32 31 32 33 33 35 36 37 38 38 39 40 40 42 43 44 43 42 41 38 35 30 24 20 19 19 23 28 31 31 30 30 29 26 24 22 22 23 23 24 25 27 29 29 30 33 34 35 38 44 50 52 52 52 52 50 47 45 45 46 46 46 43 40 36 33 32 33 36 40 44 47 49 50 51 52 55 59 64 69 73
28 28 29 28 28 29 30 30 30 31 32 30 32 36 35 32 31 32 34 35 36 37 39 40 41 41 41 41 42 43 45 45 45 44 43 39 36 31 25 22 21 20 24 28 31 31 31 30 30 27 25 23 23 23 24 23 24 26 28 29 31 33 36 37 39 43 49 53 52 52 51 50 48 46 45 46 46 46 46 44 41 37 33 31 31 34 38 42 45 49 52 52 53 55 58 63 68
29 29 29 30 30 30 31 30 31 33 33 34 36 34 34 34 33 35 37 38 39 40 42 44 44 43 43 43 44 44 46 47 47 47 43 41 37 31 27 24 23 21 23 28 32 32 32 32 31 29 26 24 23 23 23 22 23 26 28 29 31 33 36 39 41 42 46 50 51 50 50 50 49 48 47 47 47 46 46 45 44 42 39 36 33 32 34 38 42 46 50 52 52 53 55 58 61
30 32 32 32 32 32 33 31 33 35 34 37 38 33 36 38 35 37 39 39 40 42 44 46 46 46 45 45 46 46 47 49 49 48 44 42 38 33 29 27 24 23 24 28 32 33 33 33 32 30 28 25 24 23 22 22 23 24 27 29 31 32 34 38 40 41 43 46 49 50 50 50 50 50 50 50 50 49 48 47 46 45 44 42 40 37 35 36 39 42 45 48 50 52 53 55 57
30 32 32 32 33 34 34 33 35 38 37 39 38 34 39 41 35 36 40 40 41 42 44 47 46 46 47 46 47 48 49 51 50 47 44 43 39 35 32 29 26 26 26 28 33 34 34 34 33 32 30 26 24 22 21 21 22 23 26 28 31 32 33 35 37 38 39 41 44 47 49 50 50 49 49 49 49 49 49 48 47 47 46 45 44 43 41 38 37 39 41 44 48 51 53 55 58
28 31 32 32 34 34 34 36 38 39 42 41 38 35 41 45 39 37 40 42 44 43 44 47 47 47 48 48 49 50 52 53 50 47 45 44 41 38 35 32 29 28 27 29 33 35 35 35 35 34 32 28 24 21 21 20 21 22 24 27 29 31 32 33 34 36 38 39 41 43 45 47 48 49 48 48 48 48 48 48 47 47 47 46 46 46 45 43 40 38 39 41 43 47 51 53 56
29 32 33 32 35 33 33 40 42 41 44 42 38 37 42 48 44 40 41 43 46 46 45 47 48 48 49 50 51 53 53 52 49 48 47 45 43 41 39 34 31 30 30 30 33 36 36 36 37 35 33 30 25 22 21 20 21 22 23 25 27 29 31 32 33 35 38 40 42 44 44 45 47 48 49 50 50 50 50 49 49 48 48 48 47 47 46 45 44 41 39 39 40 42 46 50 53
32 33 34 37 42 40 40 45 46 44 43 40 39 39 42 46 43 40 42 43 45 47 45 45 46 47 50 51 52 53 53 51 50 50 48 46 45 44 42 37 33 32 32 32 34 36 37 37 38 37 35 32 27 23 21 20 21 22 23 24 26 28 30 31 32 34 37 41 45 47 48 49 49 49 50 51 52 52 52 52 52 51 51 51 50 50 49 48 46 45 43 41 40 39 40 43 47
33 32 35 42 47 47 50 52 49 46 42 39 40 43 45 44 40 40 41 40 42 43 43 43 44 46 50 52 53 53 53 52 52 52 50 49 48 47 45 41 36 34 34 34 34 36 38 38 38 38 37 34 29 25 22 21 21 22 23 25 26 28 29 30 32 33 36 39 43 46 49 50 52 53 53 53 53 54 54 55 55 55 55 54 53 53 52 51 50 48 47 45 43 41 40 39 40
34 35 38 42 45 47 52 55 52 48 45 40 40 46 50 45 40 41 40 38 40 40 41 43 43 45 49 51 53 53 52 53 53 54 54 53 52 50 47 44 40 36 35 35 36 37 38 39 39 40 38 36 32 27 23 21 21 23 24 25 27 29 30 31 32 33 35 37 39 43 46 49 51 52 54 55 56 57 58 59 59 59 59 58 57 56 55 55 53 51 49 48 46 45 43 42 40
36 38 39 41 44 46 50 53 49 46 49 49 44 46 48 42 37 40 40 38 39 39 40 43 43 44 48 52 54 54 53 53 55 57 58 57 55 53 50 47 44 40 37 37 37 37 39 40 41 41 40 38 35 30 26 23 22 23 24 26 28 30 31 32 33 34 35 37 39 41 43 46 49 51 52 54 56 58 60 62 64 64 63 63 62 61 61 60 59 56 54 51 50 48 46 44 43
38 40 41 41 41 43 47 50 50 52 56 54 46 44 42 38 37 38 38 39 39 38 41 43 43 43 46 50 52 53 53 54 57 60 60 59 58 55 53 50 47 44 41 38 38 38 39 41 42 42 42 41 38 34 29 24 23 23 24 26 28 30 32 34 34 35 37 38 40 41 43 45 47 49 51 53 55 57 60 63 65 67 67 68 68 67 67 67 66 63 58 55 53 52 50 48 46
41 42 43 43 43 46 49 50 55 63 64 54 46 47 46 43 42 39 37 39 39 39 40 42 44 44 45 48 48 49 51 53 58 60 60 60 59 57 55 53 51 47 44 41 39 39 39 41 43 42 43 42 40 37 33 28 24 24 24 25 28 29 31 34 35 36 38 40 42 43 45 47 48 49 51 53 55 56 59 62 64 66 68 70 72 72 73 73 73 70 65 61 58 56 53 51 49
41 42 42 44 48 52 53 52 58 66 68 59 49 49 50 47 46 42 39 39 38 38 39 41 43 44 44 45 45 47 49 51 56 59 61 61 60 59 58 55 53 49 46 43 41 40 40 41 43 43 44 43 42 40 37 32 27 24 25 25 27 29 31 33 35 37 39 41 43 45 47 50 51 53 54 55 57 58 60 62 63 64 67 70 73 75 78 79 78 77 74 68 64 62 59 55 53
41 43 43 46 50 54 53 54 60 64 68 69 60 53 48 44 45 44 39 38 39 39 39 40 40 41 42 43 44 47 49 50 53 58 62 63 61 61 60 58 55 51 48 46 43 42 41 41 43 45 45 44 43 42 40 37 31 26 25 25 27 29 30 32 34 36 38 41 43 46 48 50 52 54 56 57 59 61 62 64 64 65 66 69 72 75 81 84 83 82 81 77 72 68 65 62 59
44 46 47 48 49 51 52 53 57 60 66 75 73 62 46 37 39 41 38 38 39 39 39 38 37 38 41 42 43 46 48 49 51 57 63 65 64 63 61 60 58 54 51 48 46 44 42 43 44 45 46 45 44 43 42 41 37 31 27 26 27 28 30 32 34 35 37 40 43 46 48 50 52 54 56 59 61 63 64 66 67 67 68 69 71 74 80 86 87 85 85 83 78 74 71 68 65
47 48 51 53 52 53 55 58 59 58 61 66 71 66 45 33 37 38 37 38 38 39 39 36 35 37 39 41 42 44 46 47 50 57 64 66 66 65 63 62 60 56 54 51 49 47 45 44 45 45 46 46 45 45 44 43 41 36 30 27 27 28 30 32 33 35 37 39 41 44 47 49 51 53 55 58 61 63 65 67 69 69 69 69 71 73 77 85 89 89 87 86 83 78 75 71 69